Location: Cowley
(49.5667°N, 114.0667°W)
Time: 11:30:18
(UTC+00:00)

Envisat - Pass Details

Date: 09 December 2021
Orbit: 764 x 766 km, 98.2° (Epoch: 25 January)

Event Time Altitude Azimuth Distance (km) Brightness Sun altitude
Rises 14:04:35 0° 5° (N) 3,247 6.1 -11.7°
Reaches altitude 10° 14:07:16 10° 352° (N) 2,315 5.2 -11.3°
Maximum altitude 14:11:16 24° 300° (WNW) 1,557 4.0 -10.7°
Drops below altitude 10° 14:15:15 10° 248° (WSW) 2,303 5.1 -10.1°
Sets 14:17:56 0° 235° (SW) 3,224 5.9 -9.7°
